When you browse on this site, cookies collect data to enhance your experience and personalize the content and advertising you see.
Visit our Privacy Policy to learn more. By continuing to use the site, you agree to this use of cookies and data.
  • In Austria
  • List of Countries
  • For 7 days
  • Water Temperature
  • Weather Map
  • News
  • Weather Widgets
  • user-avatar
    Login

    Hourly Weather Kamarang

    Today, 21 January, Tuesday

    Time Temperature Precipitation Wind Pressure Humidity
    00:00 +20°C° 0.1 mm 0 mps 712 mmHg 99%
    01:00 +20°C° 0.1 mm 0 mps 712 mmHg 99%
    02:00 +20°C° 0.1 mm 0 mps 712 mmHg 99%
    03:00 +20°C° 0.1 mm 0 mps 712 mmHg 99%
    04:00 +20°C° 0.1 mm 0 mps 712 mmHg 99%
    05:00 +19°C° 0.1 mm 0 mps 712 mmHg 98%
    06:00 +20°C° 0 mm 0 mps 712 mmHg 96%
    07:00 +21°C° 0 mm 0 mps 713 mmHg 94%
    08:00 +21°C° 0 mm 0 mps 713 mmHg 92%
    09:00 +26°C° 0.1 mm 1 mps 713 mmHg 80%
    10:00 +28°C° 0.1 mm 1 mps 714 mmHg 68%
    11:00 +30°C° 0.1 mm 1 mps 714 mmHg 55%
    12:00 +30°C° 0.1 mm 1 mps 713 mmHg 55%
    13:00 +30°C° 0.1 mm 1 mps 712 mmHg 55%
    14:00 +30°C° 0.1 mm 2 mps 711 mmHg 55%
    15:00 +30°C° 0 mm 2 mps 711 mmHg 58%
    16:00 +29°C° 0 mm 2 mps 710 mmHg 60%
    17:00 +29°C° 0 mm 2 mps 710 mmHg 63%
    18:00 +27°C° 0.1 mm 1 mps 710 mmHg 73%
    19:00 +25°C° 0.1 mm 1 mps 710 mmHg 84%
    20:00 +23°C° 0.1 mm 1 mps 711 mmHg 94%
    21:00 +23°C° 0.1 mm 1 mps 711 mmHg 95%
    22:00 +23°C° 0.1 mm 1 mps 711 mmHg 97%
    23:00 +22°C° 0.1 mm 1 mps 712 mmHg 98%

    Tomorrow, 22 January, Wednesday

    Time Temperature Precipitation Wind Pressure Humidity
    00:00 +22°C° 0 mm 1 mps 712 mmHg 98%
    01:00 +22°C° 0 mm 1 mps 711 mmHg 98%
    02:00 +22°C° 0 mm 1 mps 711 mmHg 98%
    03:00 +22°C° 0 mm 1 mps 711 mmHg 98%
    04:00 +19°C° 0 mm 0 mps 711 mmHg 98%
    05:00 +19°C° 0 mm 0 mps 711 mmHg 98%
    06:00 +19°C° 0 mm 0 mps 711 mmHg 95%
    07:00 +20°C° 0 mm 0 mps 712 mmHg 93%
    08:00 +21°C° 0 mm 0 mps 712 mmHg 90%
    09:00 +25°C° 0 mm 1 mps 712 mmHg 78%
    10:00 +27°C° 0 mm 1 mps 713 mmHg 67%
    11:00 +29°C° 0 mm 1 mps 713 mmHg 55%
    12:00 +30°C° 0 mm 1 mps 712 mmHg 52%
    13:00 +31°C° 0 mm 1 mps 712 mmHg 49%
    14:00 +32°C° 0 mm 2 mps 711 mmHg 45%
    15:00 +31°C° 0 mm 2 mps 710 mmHg 50%
    16:00 +30°C° 0 mm 2 mps 710 mmHg 54%
    17:00 +29°C° 0 mm 2 mps 709 mmHg 58%
    18:00 +27°C° 0 mm 2 mps 709 mmHg 68%
    19:00 +24°C° 0 mm 1 mps 710 mmHg 78%
    20:00 +20°C° 0 mm 0 mps 710 mmHg 88%
    21:00 +20°C° 0 mm 0 mps 710 mmHg 89%
    22:00 +19°C° 0 mm 0 mps 711 mmHg 91%
    23:00 +19°C° 0 mm 0 mps 711 mmHg 93%

    Day after tomorrow, 23 January, Thursday

    Time Temperature Precipitation Wind Pressure Humidity
    00:00 +19°C° 0 mm 0 mps 711 mmHg 95%
    01:00 +18°C° 0 mm 0 mps 711 mmHg 96%
    02:00 +18°C° 0 mm 0 mps 710 mmHg 98%
    03:00 +18°C° 0 mm 0 mps 710 mmHg 98%
    04:00 +19°C° 0 mm 0 mps 710 mmHg 97%
    05:00 +19°C° 0 mm 0 mps 710 mmHg 96%
    06:00 +20°C° 0 mm 0 mps 711 mmHg 93%
    07:00 +20°C° 0 mm 0 mps 712 mmHg 90%
    08:00 +21°C° 0 mm 0 mps 712 mmHg 86%
    09:00 +22°C° 0 mm 0 mps 712 mmHg 80%
    10:00 +23°C° 0 mm 0 mps 712 mmHg 74%
    11:00 +24°C° 0 mm 0 mps 713 mmHg 68%
    12:00 +28°C° 0 mm 1 mps 712 mmHg 60%
    13:00 +30°C° 0 mm 1 mps 711 mmHg 53%
    14:00 +32°C° 0 mm 1 mps 711 mmHg 45%
    15:00 +31°C° 0 mm 1 mps 710 mmHg 49%
    16:00 +30°C° 0 mm 2 mps 710 mmHg 52%
    17:00 +29°C° 0 mm 2 mps 709 mmHg 56%
    18:00 +27°C° 0 mm 2 mps 709 mmHg 65%
    19:00 +24°C° 0 mm 1 mps 710 mmHg 75%
    20:00 +20°C° 0 mm 0 mps 710 mmHg 85%
    21:00 +20°C° 0 mm 0 mps 710 mmHg 87%
    22:00 +19°C° 0 mm 0 mps 711 mmHg 89%
    23:00 +19°C° 0 mm 0 mps 711 mmHg 91%

    24 January, Friday

    Time Temperature Precipitation Wind Pressure Humidity
    00:00 +18°C° 0 mm 0 mps 711 mmHg 93%
    01:00 +18°C° 0 mm 0 mps 711 mmHg 95%
    02:00 +18°C° 0 mm 0 mps 710 mmHg 97%
    03:00 +18°C° 0 mm 0 mps 710 mmHg 98%
    04:00 +18°C° 0 mm 0 mps 711 mmHg 98%
    05:00 +17°C° 0 mm 0 mps 711 mmHg 99%
    06:00 +19°C° 0 mm 0 mps 711 mmHg 93%
    07:00 +20°C° 0 mm 0 mps 712 mmHg 88%
    08:00 +21°C° 0 mm 0 mps 713 mmHg 83%
    09:00 +23°C° 0 mm 0 mps 713 mmHg 73%
    10:00 +27°C° 0 mm 1 mps 713 mmHg 64%
    11:00 +29°C° 0 mm 1 mps 714 mmHg 54%
    12:00 +30°C° 0 mm 1 mps 713 mmHg 53%
    13:00 +30°C° 0 mm 2 mps 712 mmHg 51%
    14:00 +31°C° 0 mm 2 mps 712 mmHg 50%
    15:00 +30°C° 0 mm 2 mps 711 mmHg 54%
    16:00 +29°C° 0 mm 2 mps 711 mmHg 58%
    17:00 +28°C° 0 mm 2 mps 710 mmHg 62%
    18:00 +26°C° 0 mm 1 mps 711 mmHg 72%
    19:00 +24°C° 0 mm 1 mps 711 mmHg 82%
    20:00 +20°C° 0 mm 0 mps 711 mmHg 92%
    21:00 +20°C° 0 mm 0 mps 712 mmHg 93%
    22:00 +20°C° 0 mm 0 mps 712 mmHg 94%
    23:00 +19°C° 0 mm 0 mps 713 mmHg 94%

    25 January, Saturday

    Time Temperature Precipitation Wind Pressure Humidity
    00:00 +19°C° 0 mm 0 mps 712 mmHg 95%
    01:00 +19°C° 0 mm 0 mps 712 mmHg 96%
    02:00 +19°C° 0 mm 0 mps 712 mmHg 96%
    03:00 +19°C° 0 mm 0 mps 712 mmHg 96%
    04:00 +19°C° 0 mm 0 mps 712 mmHg 96%
    05:00 +19°C° 0 mm 0 mps 712 mmHg 96%
    06:00 +20°C° 0 mm 0 mps 713 mmHg 91%
    07:00 +20°C° 0 mm 0 mps 713 mmHg 86%
    08:00 +21°C° 0 mm 0 mps 714 mmHg 80%
    09:00 +25°C° 0 mm 1 mps 714 mmHg 71%
    10:00 +27°C° 0 mm 1 mps 714 mmHg 62%
    11:00 +29°C° 0 mm 1 mps 715 mmHg 53%
    12:00 +29°C° 0 mm 1 mps 714 mmHg 53%
    13:00 +29°C° 0 mm 1 mps 713 mmHg 54%
    14:00 +30°C° 0 mm 1 mps 712 mmHg 55%
    15:00 +29°C° 0 mm 1 mps 712 mmHg 58%
    16:00 +28°C° 0 mm 1 mps 711 mmHg 61%
    17:00 +28°C° 0 mm 2 mps 711 mmHg 65%
    18:00 +26°C° 0 mm 1 mps 711 mmHg 74%
    19:00 +24°C° 0 mm 1 mps 712 mmHg 84%
    20:00 +20°C° 0 mm 0 mps 712 mmHg 93%
    21:00 +20°C° 0 mm 0 mps 712 mmHg 94%
    22:00 +20°C° 0 mm 0 mps 713 mmHg 96%
    23:00 +20°C° 0 mm 0 mps 713 mmHg 97%

    26 January, Sunday

    Time Temperature Precipitation Wind Pressure Humidity
    00:00 +20°C° 0.1 mm 0 mps 713 mmHg 96%
    01:00 +20°C° 0.1 mm 0 mps 712 mmHg 96%
    02:00 +20°C° 0.1 mm 0 mps 712 mmHg 95%
    03:00 +20°C° 0.1 mm 0 mps 712 mmHg 96%
    04:00 +20°C° 0.1 mm 0 mps 712 mmHg 97%
    05:00 +20°C° 0.1 mm 0 mps 712 mmHg 98%
    06:00 +20°C° 0 mm 0 mps 713 mmHg 95%
    07:00 +21°C° 0 mm 0 mps 713 mmHg 92%
    08:00 +22°C° 0 mm 0 mps 714 mmHg 90%
    09:00 +24°C° 0.1 mm 0 mps 714 mmHg 80%
    10:00 +26°C° 0.1 mm 0 mps 714 mmHg 70%
    11:00 +28°C° 0.1 mm 0 mps 714 mmHg 61%
    12:00 +30°C° 0.2 mm 1 mps 713 mmHg 60%
    13:00 +30°C° 0.2 mm 1 mps 713 mmHg 59%
    14:00 +31°C° 0.2 mm 1 mps 712 mmHg 59%
    15:00 +30°C° 0.3 mm 1 mps 711 mmHg 64%
    16:00 +29°C° 0.3 mm 1 mps 711 mmHg 69%
    17:00 +28°C° 0.3 mm 1 mps 710 mmHg 74%
    18:00 +27°C° 0.5 mm 1 mps 711 mmHg 81%
    19:00 +25°C° 0.5 mm 1 mps 712 mmHg 88%
    20:00 +23°C° 0.5 mm 1 mps 712 mmHg 95%
    21:00 +23°C° 0.2 mm 1 mps 712 mmHg 96%
    22:00 +23°C° 0.2 mm 1 mps 713 mmHg 97%
    23:00 +20°C° 0.2 mm 0 mps 713 mmHg 98%
    Show more